Location: Barcelona
(41.3830°N, 2.1830°E)
Time: 01:02:53
(UTC+02:00)

ISS - Pass Details

Date: 21 July 2019
Orbit: 409 x 418 km, 51.6° (Epoch: 23 July)

Event Time Altitude Azimuth Distance (km) Brightness Sun altitude
Rises 02:13:24 0° 309° (NW) 2,350 0.5 -27.9°
Reaches altitude 10° 02:15:52 10° 327° (NNW) 1,484 -0.4 -27.9°
Enters shadow 02:17:58 20° 5° (N) 1,024 -1.1 -27.9°
